Location: Bannatyne
(13.0833°N, 59.5333°W)
Time: 15:39:39
(UTC+00:00)

Hubble Space Telescope - Visible Passes

Search period start: 20 June 2021 00:00
Search period end: 30 June 2021 00:00
Orbit: 535 x 539 km, 28.5° (Epoch: 19 June)

Date Brightness Start Highest point End Pass type
(mag) Time Alt. Az. Time Alt. Az. Time Alt. Az.
20 Jun 3.8 00:58:44 10° W 00:58:45 10° W 00:58:45 10° W visible
20 Jun 0.7 23:05:44 10° WNW 23:09:50 86° SSW 23:13:07 16° ESE visible
21 Jun 1.0 22:54:50 10° WNW 22:58:53 62° SSW 23:02:50 11° SE visible
